CZ-6A DEB, 54409

Orbit data source: Space-Track

CZ-6A DEB, 54409 is space debris in SSO originally from a launch on Fri, 11 Nov 2022 UTC launched from the Taiyaun Space Center, China (TSC). Debris objects in space refer to the collection of defunct objects orbiting the Earth. Examples of debris include non-operational satellites, rocket bodies, and fragments generated from explosions, collisions, or faulty payload assembly.

Loading next visibility...
Identifier
54409, 2022-151EH
Orbit
SSO
Country
Flag of CNCN / PRC
Related business
Manufacturer
SAST
Mission
Spacecraft
Bus & Motor
Unknown
Mass
Unknown
Launch date (UTC)
2022-11-11 (3 years ago)
Launch vehicle
Unknown
Launch site
Taiyaun Space Center, China (TSC)
Object type
Payload
Rocket body
Debris
Shape & HBR
Unknown shape, 0.1 m
Radar Cross Section
Small (<0.1 m²)

Expand to show TLE details & history
Last TLE update: 4 hours ago

TLE from 4 hours ago
0 CZ-6A DEB
1 54409U 22151EH  26130.52485303  .00001915  00000-0  79801-3 0  9999
2 54409  98.7496 132.0425 0133999 307.2364  51.6649 14.22733096180291
Epoch: 2026-05-10T12:35Z
TLE epoch observation values (Epoch: 2026-05-10T12:35:47.301Z)
Latitude
-0.00013°
Longitude
74.76874°
Altitude
760.041 km
Speed
7.505 km/s
True Right ascension
08h 48m 10s
True Declination
0° 00' 00"
Sunlit
Object was in daylight at epoch
Visualization orbit readout
Latitude
Unknown
Longitude
Unknown
Altitude
Unknown
Speed
Unknown
Apparent Right ascension
Unknown
Apparent Declination
Unknown
Sunlit
N/A
Visualization observer readout
Local Sidereal Time
01:08:37
Azimuth
Unknown
Elevation
Unknown
Doppler factor
Unknown
Orbital elements
Apogee altitude
909.645 km
Perigee altitude
716.916 km
Semi-major axis
7,191.418 km
Eccentricity
0.0134
Inclination
98.7496°
RAAN
132.0425°
Arg. of periapsis
307.2364°
True anomaly
52.8819°
Mean anomaly
51.6649°
Eccentric anomaly
52.27214°
Mean motion
3.55895 °/min
Orbital period
101.15 mins
BSTAR
0.00079801
Loading maneuver chart data...
Computing Atmospheric mass density...
Loading historical data...
Loading historical data...
Loading historical data...
Loading historical data...
Loading historical data...
Loading historical data...
Loading historical data...

Documentation

Showing up to 5 results
|